Location: Sternwarte ZA, Rosenfeld-Brittheim
(48.2889°N, 8.6789°E)
Time: 11:55:36
(UTC+02:00)

ISS - Pass Details

Date: 18 July 2018
Orbit: 402 x 408 km, 51.6° (Epoch: 21 July)

Event Time Altitude Azimuth Distance (km) Brightness Sun altitude
Rises 22:17:16 0° 189° (S) 2,307 -0.3 -8.3°
Enters shadow 22:17:27 - 187° (S) 2,243 -0.4 -8.3°
Exits shadow 22:25:48 - 80° (E) 2,282 -0.3 -9.3°
Sets 22:25:56 0° 79° (E) 2,328 -0.3 -9.3°
